Flag for Austria Weather past 2 weeks in Klagenfurt, Carinthia, Austria

Now
68 °F

Mild.


Feels Like: 68 °F
Forecast: 65 / 91 °F
Wind: 5 mph from Northwest

Location: Klagenfurt-Flughafen

Current Time: Jul 5, 2015 at 2:44:32 AM

Latest Report: Jul 5, 2015 at 1:50 AM


Visibility: N/A

Pressure: 30.21 "Hg

Humidity: 83%

Dew point: 63 °F

Location of KlagenfurtLocation

Historic Weather in Klagenfurt — Graph

°F

Klagenfurt temperature yesterday

Maximum temperature yesterday: 90 °F (at 4:20 PM)
Minimum temperature yesterday: 68 °F (at 2:20 AM)
Average temperature yesterday: 77 °F

Past Weeks' High & Low Weather Summary

 TemperatureHumidityPressure
High90 °F (Jul 4, 4:20 PM)100% (Jun 23, 10:50 PM)30.36 "Hg (Jun 23, 10:50 PM)
Low46 °F (Jun 25, 4:50 AM)32% (Jun 28, 2:50 PM)29.77 "Hg (Jun 23, 4:20 AM)
Average66 °F67%30.13 "Hg
* Reported Jun 20 1:20 AM — Jul 5 1:20 AM, Klagenfurt, Weather by CustomWeather, © 2015

Note: Actual official high and low records may vary slightly from our data, if they occured in-between our weather recording intervals... More about our weather records

Advertising

Klagenfurt weather history for previous 24 hours

 ConditionsComfort  
Time TempWeatherWind HumidityBarometerVisibility
1:20 AM
Sun, Jul 5
70 °FMild.5 mph78%30.21 "HgN/A
12:50 AM72 °FMild.2 mph73%30.21 "HgN/A
12:20 AM73 °FMild.2 mph69%30.21 "HgN/A
11:50 PM
Sat, Jul 4
73 °FMild.3 mph69%30.21 "HgN/A
11:20 PM75 °FClear.2 mph65%30.18 "Hg10 mi
10:50 PM75 °FPassing clouds.3 mph65%30.18 "HgN/A
10:20 PM77 °FPassing clouds.3 mph61%30.18 "HgN/A
9:50 PM77 °FPassing clouds.3 mph61%30.18 "HgN/A
9:20 PM79 °FPassing clouds.3 mph58%30.18 "HgN/A
8:50 PM81 °FPassing clouds.3 mph54%30.18 "HgN/A
8:20 PM81 °FPassing clouds.5 mph58%30.15 "HgN/A
7:50 PM82 °FPassing clouds.7 mph55%30.15 "HgN/A
7:20 PM84 °FPassing clouds.6 mph51%30.15 "HgN/A
6:50 PM86 °FPassing clouds.6 mph49%30.15 "HgN/A
6:20 PM88 °FPassing clouds.7 mph43%30.15 "HgN/A
5:50 PM86 °FPassing clouds.6 mph49%30.15 "HgN/A
5:20 PM88 °FPassing clouds.5 mph40%30.15 "HgN/A
4:50 PM88 °FPassing clouds.5 mph35%30.15 "HgN/A
4:20 PM90 °FPassing clouds.5 mph38%30.18 "HgN/A
3:50 PM88 °FPassing clouds.5 mph46%30.18 "HgN/A
3:20 PM86 °FPassing clouds.6 mph49%30.18 "HgN/A
2:50 PM86 °FPassing clouds.5 mph46%30.18 "HgN/A
2:20 PM84 °FPassing clouds.5 mph51%30.21 "HgN/A
1:50 PM84 °FScattered clouds.5 mph55%30.21 "HgN/A
1:20 PM84 °FScattered clouds.5 mph51%30.24 "HgN/A
12:50 PM82 °FScattered clouds.5 mph55%30.24 "HgN/A
12:20 PM82 °FScattered clouds.3 mph55%30.24 "HgN/A
11:50 AM81 °FPassing clouds.3 mph58%30.24 "HgN/A
11:20 AM81 °FPassing clouds.3 mph62%30.27 "HgN/A
10:50 AM79 °FScattered clouds.3 mph65%30.27 "HgN/A
10:20 AM77 °FScattered clouds.1 mph65%30.27 "HgN/A
9:50 AM75 °FScattered clouds.2 mph69%30.30 "HgN/A
9:20 AM75 °FPartly sunny.1 mph69%30.30 "HgN/A
8:50 AM72 °FPartly sunny.2 mph78%30.30 "HgN/A
8:20 AM72 °FPartly sunny.3 mph78%30.30 "HgN/A
7:50 AM70 °FPartly sunny.3 mph83%30.30 "HgN/A
7:20 AM70 °FPartly sunny.2 mph78%30.30 "HgN/A
6:50 AM68 °FPartly sunny.2 mph83%30.30 "HgN/A
6:20 AM68 °FPartly sunny.5 mph83%30.30 "HgN/A
5:50 AM68 °FPassing clouds.6 mph83%30.30 "HgN/A
5:20 AM68 °FPassing clouds.7 mph83%30.30 "HgN/A
4:50 AM68 °FPassing clouds.5 mph88%30.30 "HgN/A
4:20 AM68 °FPassing clouds.5 mph88%30.30 "HgN/A
3:50 AM68 °FPassing clouds.2 mph88%30.30 "HgN/A
3:20 AM68 °FPassing clouds.2 mph88%30.33 "HgN/A
2:50 AM68 °FPassing clouds.5 mph88%30.33 "HgN/A
2:20 AM68 °FMild.5 mph88%30.33 "HgN/A
Weather by CustomWeather, © 2015

See weather overviewHow to use our weather pages